Volver al catálogo

STARLINK-34455

ActivoComunicacionesVLEO
NORAD 65497·PAYLOAD·🇺🇸 United States

Lanzado Sep 5, 2025 desde Cape Canaveral Space Force Station

Loading…

Próximos Pases (próximas 24 horas)

TLE

ActualizadoSource: CelesTrak SupGP

Época: Sep 14, 2026, 20:50 UTC

1 65497C 25198F   26257.86854167 -.00031531  00000+0 -93182-3 0  2570
2 65497  53.1572 108.0442 0001232  86.9907 286.2514 15.34399265    18

Sigue STARLINK-34455 en tiempo real con AllMySat

Download on the App Store